Погода в Белой Кринице

Украина / Херсонская область     47°20′44″N   33°11′28″E
темп.,
°C
ветер,
м/с
пор.,
м/с
влажн.,
%
обл.,
%
осадки,
мм/ч
давл.,
гПа
погр.,
м
24 января, пн
пн2423:00−4с71382100 0.0 1023566
02:00−4с81578100 0.0 1022594
05:00−5с81491100 0.4 1022684
08:00−5с81491100 1.5 1023690
11:00−4с81389100 0.8 1023694
14:00−3ссв71085100 1.2 1023649
17:00−4с71294100 0.9 1024601
20:00−4с61294100 1.8 1024613
25 января, вт
вт2523:00−4с61195100 0.9 1024671
02:00−5с5995100 1.7 1024591
05:00−6с5994100 1.1 1024538
08:00−7с5894100 1.6 1024418
11:00−6ссв5687100 0.3 1024527
14:00−5ссв4586100 0.4 1024589
17:00−6с239695 0.1 102357
20:00−9с229898 0.1 102424
26 января, ср
ср2623:00−10сз009870 0.1 102310
02:00−11зсз129874 0.1 102210
05:00−12юз2298100 0.0 102121
08:00−10ююз2396100 0.0 102076
11:00−5юз3484100 0.0 1020291
14:00−4юз3591100 0.1 1019415
17:00−5ююз119886 0.3 101910
20:00−6юз119875 0.4 101910
27 января, чт
чт2723:00−6ссз369765 0.1 1020162
02:00−9ссз369752 0.1 102090
05:00−10ссз359734 0.0 102180
08:00−10сз2398100 0.0 102150
11:00−5з228772 0.0 1021286
14:00−3зюз358080 0.0 1020501
17:00−7ююз369275 0.0 101973
20:00−5ююз499293 0.0 1018216
28 января, пт
пт2823:00−3ююз499799 0.2 1016233
02:00−2юз4129594 0.3 1016324
05:00−1ююз41091100 0.0 1014258
08:000юз51291100 0.0 1014333
11:00+1юз61296100 0.0 1013443
14:00+2зюз51094100 0.0 1013415
17:00+1юз51099100 0.3 1013300
20:00−1юз5129286 0.3 1014225